QPF
0.00 0.00 0.00 0.01 0.01 0.02 0.02 0.01 0.01 0.01 0.01 0.02 0.02 0.01 0.02 0.04 0.04 0.05 0.06 0.07 0.06 0.04 0.03 0.02 0.01 0.01 0.01 0.00 0.00 0.00 0.00 0.00 0.00 0.00 0.00 0.01 0.00 0.00 0.01 0.01 0.01 0.01 0.01 0.01
0.00 0.00 0.01 0.01 0.02 0.02 0.02 0.02 0.01 0.01 0.01 0.01 0.01 0.02 0.03 0.03 0.04 0.06 0.07 0.06 0.04 0.03 0.03 0.01 0.01 0.01 0.00 0.00 0.00 0.00 0.00 0.00 0.00 0.01 0.01 0.01 0.00 0.00 0.01 0.01 0.01 0.01 0.01 0.01
0.00 0.00 0.01 0.01 0.03 0.02 0.02 0.02 0.02 0.02 0.02 0.01 0.02 0.02 0.03 0.03 0.04 0.05 0.06 0.06 0.05 0.04 0.02 0.01 0.01 0.00 0.00 0.00 0.00 0.00 0.00 0.00 0.00 0.01 0.01 0.01 0.01 0.00 0.00 0.00 0.01 0.01 0.01 0.01
0.00 0.00 0.01 0.03 0.05 0.04 0.03 0.02 0.02 0.02 0.02 0.02 0.02 0.02 0.02 0.03 0.03 0.05 0.05 0.05 0.04 0.03 0.02 0.02 0.01 0.01 0.01 0.01 0.01 0.01 0.00 0.00 0.00 0.01 0.01 0.01 0.01 0.00 0.00 0.00 0.01 0.01 0.01 0.02
0.00 0.01 0.02 0.03 0.03 0.03 0.03 0.03 0.03 0.03 0.02 0.01 0.02 0.02 0.03 0.04 0.05 0.06 0.05 0.04 0.04 0.03 0.01 0.01 0.01 0.01 0.01 0.01 0.01 0.01 0.01 0.01 0.01 0.01 0.01 0.01 0.01 0.00 0.00 0.00 0.01 0.01 0.01 0.02
0.01 0.02 0.02 0.02 0.01 0.01 0.02 0.02 0.03 0.03 0.02 0.01 0.01 0.02 0.03 0.04 0.05 0.04 0.02 0.03 0.04 0.03 0.02 0.02 0.02 0.02 0.01 0.01 0.01 0.01 0.01 0.02 0.01 0.01 0.01 0.01 0.01 0.00 0.00 0.01 0.01 0.01 0.01 0.02
0.02 0.02 0.02 0.01 0.01 0.01 0.02 0.02 0.02 0.02 0.02 0.02 0.02 0.01 0.01 0.02 0.03 0.04 0.04 0.05 0.05 0.04 0.01 0.01 0.02 0.01 0.01 0.01 0.01 0.01 0.01 0.02 0.02 0.01 0.01 0.01 0.00 0.00 0.00 0.01 0.01 0.01 0.01 0.01
0.01 0.01 0.01 0.00 0.00 0.00 0.01 0.01 0.02 0.02 0.01 0.01 0.01 0.02 0.01 0.02 0.04 0.06 0.06 0.04 0.03 0.03 0.02 0.02 0.02 0.01 0.01 0.01 0.01 0.01 0.01 0.02 0.02 0.02 0.01 0.00 0.00 0.00 0.01 0.01 0.01 0.01 0.01 0.01
0.01 0.01 0.01 0.00 0.00 0.01 0.01 0.02 0.02 0.02 0.02 0.01 0.02 0.05 0.05 0.02 0.03 0.05 0.04 0.03 0.02 0.02 0.02 0.02 0.02 0.01 0.02 0.01 0.01 0.01 0.02 0.02 0.02 0.01 0.01 0.01 0.01 0.01 0.01 0.01 0.01 0.01 0.01 0.01
0.01 0.01 0.01 0.01 0.01 0.01 0.01 0.01 0.01 0.02 0.02 0.01 0.02 0.05 0.04 0.01 0.01 0.01 0.01 0.02 0.02 0.02 0.01 0.01 0.01 0.01 0.01 0.02 0.01 0.02 0.02 0.02 0.02 0.01 0.01 0.00 0.01 0.01 0.01 0.01 0.01 0.01 0.01 0.00
0.01 0.01 0.01 0.01 0.01 0.01 0.00 0.00 0.00 0.01 0.01 0.01 0.03 0.03 0.02 0.01 0.01 0.00 0.01 0.01 0.01 0.02 0.02 0.02 0.02 0.01 0.01 0.02 0.02 0.02 0.02 0.01 0.01 0.01 0.01 0.01 0.01 0.01 0.00 0.01 0.01 0.01 0.01 0.00
0.01 0.02 0.01 0.01 0.00 0.00 0.00 0.01 0.01 0.01 0.01 0.01 0.02 0.01 0.01 0.01 0.01 0.01 0.01 0.02 0.01 0.02 0.02 0.02 0.02 0.01 0.01 0.01 0.01 0.01 0.01 0.01 0.01 0.01 0.01 0.01 0.01 0.00 0.00 0.01 0.01 0.01 0.01 0.00
0.01 0.01 0.01 0.01 0.00 0.00 0.01 0.01 0.02 0.01 0.01 0.01 0.01 0.00 0.00 0.01 0.02 0.01 0.01 0.02 0.01 0.02 0.02 0.02 0.01 0.01 0.01 0.01 0.01 0.01 0.01 0.01 0.01 0.01 0.01 0.00 0.01 0.00 0.00 0.00 0.00 0.00 0.00 0.00
0.01 0.00 0.00 0.01 0.01 0.00 0.00 0.01 0.00 0.00 0.00 0.00 0.01 0.00 0.00 0.00 0.00 0.00 0.01 0.01 0.01 0.01 0.01 0.01 0.01 0.01 0.00 0.00 0.01 0.01 0.00 0.00 0.00 0.00 0.00 0.00 0.00 0.00 0.00 0.00 0.00 0.00 0.00 0.00
0.01 0.00 0.00 0.00 0.01 0.00 0.00 0.00 0.00 0.00 0.00 0.01 0.01 0.01 0.00 0.00 0.00 0.00 0.00 0.00 0.01 0.01 0.01 0.01 0.01 0.00 0.00 0.00 0.00 0.01 0.00 0.00 0.00 0.00 0.00 0.00 0.00 0.00 0.00 0.00 0.00 0.00 0.00 0.00
0.00 0.00 0.00 0.00 0.00 0.00 0.00 0.00 0.00 0.00 0.01 0.01 0.01 0.01 0.00 0.00 0.00 0.00 0.00 0.00 0.00 0.01 0.01 0.00 0.00 0.00 0.00 0.00 0.00 0.00 0.00 0.00 0.00 0.00 0.00 0.00 0.00 0.00 0.00 0.00 0.00 0.00 0.00 0.00
0.00 0.00 0.00 0.00 0.00 0.00 0.00 0.00 0.01 0.01 0.01 0.01 0.01 0.00 0.00 0.00 0.00 0.00 0.00 0.00 0.00 0.00 0.00 0.00 0.00 0.00 0.00 0.00 0.00 0.00 0.00 0.00 0.00 0.00 0.00 0.00 0.00 0.00 0.00 0.00 0.00 0.00 0.00 0.00
0.00 0.00 0.00 0.00 0.00 0.00 0.00 0.00 0.00 0.01 0.01 0.01 0.00 0.00 0.00 0.00 0.00 0.00 0.00 0.00 0.00 0.00 0.00 0.00 0.00 0.00 0.00 0.00 0.00 0.00 0.00 0.00 0.00 0.00 0.00 0.00 0.00 0.00 0.00 0.00 0.00 0.00 0.00 0.00
0.00 0.00 0.00 0.00 0.00 0.00 0.00 0.00 0.00 0.00 0.00 0.00 0.00 0.00 0.00 0.00 0.00 0.00 0.00 0.00 0.00 0.00 0.00 0.00 0.00 0.00 0.00 0.00 0.00 0.00 0.00 0.00 0.00 0.00 0.00 0.00 0.00 0.00 0.00 0.00 0.00 0.00 0.00 0.00
0.00 0.00 0.00 0.00 0.00 0.00 0.00 0.00 0.00 0.00 0.00 0.00 0.00 0.00 0.00 0.00 0.00 0.00 0.00 0.00 0.00 0.00 0.00 0.00 0.00 0.00 0.00 0.00 0.00 0.00 0.00 0.00 0.00 0.00 0.00 0.00 0.00 0.00 0.00 0.00 0.00 0.00 0.00 0.00
0.00 0.00 0.00 0.00 0.00 0.00 0.00 0.00 0.00 0.00 0.00 0.00 0.00 0.00 0.00 0.00 0.00 0.00 0.00 0.00 0.00 0.00 0.00 0.00 0.00 0.00 0.00 0.00 0.00 0.00 0.00 0.00 0.00 0.00 0.00 0.00 0.00 0.00 0.00 0.00 0.00 0.00 0.00 0.00
0.00 0.00 0.00 0.00 0.00 0.00 0.00 0.01 0.01 0.00 0.00 0.00 0.00 0.00 0.00 0.00 0.00 0.00 0.00 0.00 0.00 0.00 0.00 0.00 0.00 0.00 0.00 0.00 0.00 0.00 0.00 0.00 0.00 0.00 0.00 0.00 0.00 0.00 0.00 0.00 0.00 0.00 0.00 0.00
0.00 0.00 0.00 0.00 0.00 0.00 0.00 0.01 0.01 0.00 0.00 0.00 0.00 0.00 0.00 0.00 0.00 0.00 0.00 0.00 0.00 0.00 0.00 0.00 0.00 0.00 0.00 0.00 0.00 0.00 0.00 0.00 0.00 0.00 0.00 0.00 0.00 0.00 0.00 0.00 0.00 0.00 0.00 0.00
0.00 0.00 0.00 0.00 0.00 0.00 0.00 0.00 0.00 0.00 0.00 0.00 0.00 0.00 0.00 0.00 0.00 0.00 0.00 0.00 0.00 0.00 0.00 0.00 0.00 0.00 0.00 0.00 0.00 0.00 0.00 0.00 0.00 0.00 0.00 0.00 0.00 0.00 0.00 0.00 0.00 0.00 0.00 0.00
0.00 0.00 0.00 0.00 0.00 0.00 0.00 0.00 0.00 0.00 0.00 0.00 0.00 0.00 0.00 0.00 0.00 0.00 0.00 0.00 0.00 0.00 0.00 0.00 0.00 0.00 0.00 0.00 0.00 0.00 0.00 0.00 0.00 0.00 0.00 0.00 0.00 0.00 0.00 0.00 0.00 0.00 0.00 0.00
0.00 0.00 0.00 0.00 0.00 0.00 0.00 0.00 0.00 0.00 0.00 0.00 0.00 0.00 0.00 0.00 0.00 0.00 0.00 0.00 0.00 0.00 0.00 0.00 0.00 0.00 0.00 0.00 0.00 0.00 0.00 0.00 0.00 0.00 0.00 0.00 0.00 0.00 0.00 0.00 0.00 0.00 0.00 0.00
0.00 0.00 0.00 0.00 0.00 0.00 0.00 0.00 0.00 0.00 0.00 0.00 0.00 0.00 0.00 0.00 0.00 0.00 0.00 0.00 0.00 0.00 0.00 0.00 0.00 0.00 0.00 0.00 0.00 0.00 0.00 0.00 0.00 0.00 0.00 0.00 0.00 0.00 0.00 0.00 0.00 0.00 0.00 0.00
MSLP
1016.86 1016.99 1017.08 1017.14 1017.17 1017.17 1017.15 1017.10 1017.03 1016.96 1016.89 1016.86 1016.88 1016.96 1017.14 1017.39 1017.72 1018.12 1018.55 1018.99 1019.41 1019.80 1020.14 1020.42 1020.66 1020.87 1021.05 1021.23 1021.40 1021.56 1021.71 1021.83 1021.91 1021.93 1021.88 1021.76 1021.58 1021.34 1021.04 1020.71 1020.36 1019.98 1019.58 1019.15
1017.17 1017.23 1017.22 1017.15 1017.04 1016.92 1016.79 1016.67 1016.59 1016.55 1016.57 1016.66 1016.82 1017.05 1017.35 1017.69 1018.07 1018.47 1018.86 1019.23 1019.57 1019.88 1020.15 1020.38 1020.60 1020.82 1021.03 1021.25 1021.47 1021.67 1021.86 1022.01 1022.11 1022.14 1022.10 1021.99 1021.80 1021.56 1021.27 1020.95 1020.60 1020.23 1019.84 1019.43
1017.49 1017.47 1017.37 1017.19 1016.98 1016.75 1016.55 1016.40 1016.33 1016.35 1016.46 1016.66 1016.95 1017.31 1017.71 1018.14 1018.56 1018.95 1019.31 1019.63 1019.90 1020.14 1020.34 1020.54 1020.73 1020.94 1021.15 1021.39 1021.62 1021.85 1022.06 1022.22 1022.32 1022.36 1022.32 1022.21 1022.04 1021.82 1021.55 1021.25 1020.93 1020.59 1020.23 1019.84
1017.79 1017.70 1017.52 1017.26 1016.97 1016.69 1016.46 1016.31 1016.27 1016.35 1016.56 1016.87 1017.27 1017.73 1018.22 1018.70 1019.15 1019.55 1019.88 1020.16 1020.37 1020.55 1020.71 1020.86 1021.02 1021.20 1021.39 1021.61 1021.84 1022.05 1022.24 1022.39 1022.49 1022.53 1022.50 1022.41 1022.27 1022.08 1021.85 1021.59 1021.32 1021.02 1020.70 1020.37
1018.06 1017.89 1017.64 1017.33 1017.00 1016.70 1016.48 1016.37 1016.38 1016.54 1016.83 1017.24 1017.73 1018.27 1018.82 1019.34 1019.80 1020.20 1020.51 1020.75 1020.93 1021.06 1021.17 1021.28 1021.40 1021.54 1021.70 1021.88 1022.06 1022.24 1022.40 1022.53 1022.61 1022.65 1022.64 1022.58 1022.48 1022.34 1022.17 1021.98 1021.75 1021.51 1021.25 1020.96
1018.21 1017.98 1017.68 1017.34 1017.01 1016.73 1016.55 1016.50 1016.60 1016.84 1017.22 1017.71 1018.27 1018.87 1019.45 1019.99 1020.46 1020.85 1021.14 1021.35 1021.50 1021.60 1021.67 1021.74 1021.82 1021.91 1022.03 1022.15 1022.28 1022.41 1022.53 1022.63 1022.70 1022.74 1022.76 1022.74 1022.70 1022.63 1022.53 1022.40 1022.24 1022.06 1021.84 1021.60
1018.21 1017.93 1017.60 1017.26 1016.96 1016.74 1016.64 1016.68 1016.87 1017.21 1017.67 1018.23 1018.85 1019.47 1020.07 1020.62 1021.08 1021.45 1021.72 1021.91 1022.03 1022.11 1022.16 1022.20 1022.24 1022.29 1022.35 1022.42 1022.50 1022.58 1022.66 1022.73 1022.80 1022.86 1022.91 1022.95 1022.97 1022.97 1022.95 1022.89 1022.79 1022.66 1022.48 1022.27
1018.03 1017.71 1017.39 1017.08 1016.85 1016.72 1016.72 1016.88 1017.18 1017.61 1018.15 1018.77 1019.42 1020.06 1020.65 1021.18 1021.62 1021.97 1022.22 1022.39 1022.50 1022.56 1022.60 1022.62 1022.63 1022.65 1022.67 1022.70 1022.74 1022.78 1022.83 1022.89 1022.97 1023.05 1023.15 1023.25 1023.34 1023.41 1023.46 1023.46 1023.41 1023.31 1023.15 1022.94
1017.68 1017.36 1017.06 1016.82 1016.69 1016.67 1016.81 1017.08 1017.50 1018.03 1018.64 1019.30 1019.96 1020.60 1021.18 1021.67 1022.08 1022.39 1022.62 1022.78 1022.87 1022.93 1022.96 1022.98 1022.99 1022.99 1022.99 1023.00 1023.01 1023.04 1023.08 1023.15 1023.25 1023.37 1023.51 1023.66 1023.82 1023.95 1024.05 1024.09 1024.07 1023.98 1023.82 1023.60
1017.21 1016.92 1016.68 1016.54 1016.52 1016.65 1016.92 1017.32 1017.85 1018.47 1019.14 1019.82 1020.48 1021.10 1021.63 1022.09 1022.45 1022.72 1022.92 1023.06 1023.15 1023.21 1023.25 1023.28 1023.29 1023.30 1023.31 1023.32 1023.34 1023.37 1023.43 1023.52 1023.64 1023.80 1023.99 1024.19 1024.39 1024.56 1024.69 1024.75 1024.74 1024.64 1024.46 1024.21
1016.69 1016.46 1016.31 1016.29 1016.40 1016.67 1017.08 1017.61 1018.24 1018.93 1019.63 1020.33 1020.97 1021.54 1022.03 1022.42 1022.73 1022.96 1023.12 1023.25 1023.33 1023.40 1023.46 1023.50 1023.54 1023.58 1023.61 1023.65 1023.69 1023.75 1023.84 1023.96 1024.11 1024.31 1024.53 1024.76 1024.98 1025.17 1025.31 1025.37 1025.34 1025.22 1025.02 1024.73
1016.19 1016.04 1016.00 1016.11 1016.37 1016.77 1017.31 1017.95 1018.65 1019.39 1020.11 1020.79 1021.40 1021.91 1022.33 1022.67 1022.91 1023.10 1023.23 1023.33 1023.42 1023.50 1023.57 1023.65 1023.72 1023.79 1023.87 1023.94 1024.03 1024.13 1024.25 1024.40 1024.59 1024.81 1025.05 1025.29 1025.51 1025.70 1025.82 1025.86 1025.80 1025.66 1025.42 1025.11
1015.77 1015.71 1015.79 1016.02 1016.40 1016.93 1017.56 1018.28 1019.03 1019.79 1020.51 1021.16 1021.72 1022.18 1022.54 1022.80 1023.00 1023.13 1023.24 1023.32 1023.41 1023.50 1023.59 1023.70 1023.81 1023.93 1024.04 1024.16 1024.29 1024.43 1024.59 1024.78 1024.99 1025.22 1025.46 1025.69 1025.90 1026.06 1026.15 1026.15 1026.07 1025.90 1025.64 1025.33
1015.43 1015.47 1015.65 1015.99 1016.47 1017.08 1017.79 1018.55 1019.32 1020.07 1020.77 1021.38 1021.89 1022.30 1022.60 1022.82 1022.97 1023.07 1023.15 1023.23 1023.31 1023.41 1023.53 1023.66 1023.80 1023.95 1024.11 1024.27 1024.44 1024.61 1024.80 1025.01 1025.23 1025.46 1025.69 1025.90 1026.08 1026.20 1026.26 1026.23 1026.12 1025.93 1025.68 1025.37
1015.16 1015.28 1015.55 1015.96 1016.51 1017.17 1017.90 1018.67 1019.43 1020.16 1020.83 1021.40 1021.87 1022.23 1022.50 1022.68 1022.81 1022.91 1022.98 1023.06 1023.15 1023.26 1023.39 1023.54 1023.70 1023.87 1024.06 1024.25 1024.44 1024.64 1024.85 1025.07 1025.30 1025.52 1025.73 1025.91 1026.05 1026.14 1026.16 1026.11 1025.98 1025.79 1025.55 1025.27
1014.95 1015.13 1015.44 1015.89 1016.45 1017.11 1017.83 1018.58 1019.31 1020.01 1020.63 1021.17 1021.61 1021.96 1022.22 1022.41 1022.55 1022.65 1022.74 1022.83 1022.93 1023.05 1023.19 1023.35 1023.53 1023.71 1023.91 1024.11 1024.32 1024.53 1024.75 1024.97 1025.19 1025.40 1025.59 1025.75 1025.86 1025.91 1025.91 1025.84 1025.71 1025.53 1025.32 1025.09
1014.76 1014.96 1015.28 1015.72 1016.26 1016.89 1017.56 1018.25 1018.94 1019.59 1020.18 1020.70 1021.14 1021.50 1021.79 1022.01 1022.19 1022.33 1022.46 1022.58 1022.71 1022.84 1022.99 1023.15 1023.32 1023.51 1023.70 1023.90 1024.11 1024.32 1024.54 1024.76 1024.97 1025.17 1025.34 1025.47 1025.56 1025.60 1025.59 1025.51 1025.40 1025.24 1025.07 1024.89
1014.58 1014.77 1015.07 1015.46 1015.94 1016.49 1017.09 1017.71 1018.34 1018.95 1019.52 1020.04 1020.50 1020.90 1021.24 1021.53 1021.78 1021.99 1022.17 1022.34 1022.49 1022.65 1022.80 1022.96 1023.12 1023.29 1023.47 1023.66 1023.86 1024.07 1024.28 1024.49 1024.69 1024.88 1025.04 1025.17 1025.25 1025.28 1025.27 1025.21 1025.11 1024.99 1024.85 1024.72
1014.43 1014.58 1014.82 1015.14 1015.54 1015.99 1016.50 1017.04 1017.60 1018.17 1018.72 1019.25 1019.75 1020.21 1020.63 1021.00 1021.33 1021.63 1021.88 1022.10 1022.30 1022.47 1022.63 1022.79 1022.94 1023.09 1023.25 1023.42 1023.61 1023.80 1024.01 1024.22 1024.42 1024.60 1024.76 1024.89 1024.98 1025.01 1025.01 1024.97 1024.89 1024.80 1024.70 1024.61
1014.33 1014.44 1014.61 1014.84 1015.13 1015.49 1015.89 1016.34 1016.84 1017.36 1017.90 1018.44 1018.98 1019.51 1020.01 1020.47 1020.89 1021.26 1021.59 1021.87 1022.10 1022.30 1022.47 1022.62 1022.76 1022.89 1023.04 1023.19 1023.37 1023.55 1023.75 1023.96 1024.16 1024.35 1024.52 1024.65 1024.75 1024.80 1024.81 1024.79 1024.73 1024.67 1024.59 1024.53
1014.31 1014.38 1014.47 1014.62 1014.81 1015.06 1015.36 1015.72 1016.15 1016.62 1017.14 1017.69 1018.26 1018.84 1019.40 1019.94 1020.44 1020.88 1021.27 1021.59 1021.87 1022.08 1022.26 1022.41 1022.54 1022.67 1022.80 1022.95 1023.11 1023.30 1023.50 1023.71 1023.91 1024.11 1024.28 1024.43 1024.53 1024.60 1024.63 1024.62 1024.59 1024.54 1024.49 1024.44
1014.41 1014.43 1014.47 1014.54 1014.63 1014.78 1014.99 1015.26 1015.61 1016.03 1016.51 1017.05 1017.63 1018.23 1018.83 1019.41 1019.95 1020.44 1020.87 1021.23 1021.52 1021.76 1021.94 1022.10 1022.23 1022.35 1022.49 1022.63 1022.80 1022.99 1023.20 1023.41 1023.63 1023.83 1024.01 1024.17 1024.28 1024.36 1024.40 1024.41 1024.39 1024.35 1024.31 1024.27
1014.60 1014.61 1014.60 1014.60 1014.62 1014.68 1014.80 1014.98 1015.25 1015.60 1016.03 1016.52 1017.08 1017.67 1018.26 1018.85 1019.40 1019.90 1020.34 1020.71 1021.02 1021.26 1021.46 1021.62 1021.77 1021.90 1022.05 1022.21 1022.39 1022.59 1022.81 1023.03 1023.26 1023.47 1023.65 1023.81 1023.93 1024.01 1024.06 1024.07 1024.07 1024.04 1024.00 1023.96
1014.88 1014.87 1014.84 1014.79 1014.75 1014.73 1014.77 1014.87 1015.05 1015.32 1015.67 1016.10 1016.60 1017.13 1017.69 1018.23 1018.76 1019.24 1019.66 1020.03 1020.33 1020.58 1020.79 1020.96 1021.12 1021.28 1021.46 1021.64 1021.85 1022.07 1022.30 1022.54 1022.77 1022.98 1023.17 1023.32 1023.44 1023.52 1023.57 1023.58 1023.58 1023.55 1023.52 1023.48
1015.17 1015.17 1015.12 1015.04 1014.95 1014.88 1014.84 1014.87 1014.96 1015.14 1015.41 1015.75 1016.15 1016.61 1017.08 1017.56 1018.02 1018.45 1018.84 1019.17 1019.46 1019.71 1019.93 1020.12 1020.31 1020.51 1020.71 1020.93 1021.17 1021.42 1021.67 1021.91 1022.15 1022.36 1022.54 1022.69 1022.79 1022.87 1022.91 1022.93 1022.92 1022.91 1022.88 1022.85
1015.43 1015.43 1015.38 1015.28 1015.16 1015.04 1014.95 1014.90 1014.92 1015.01 1015.19 1015.43 1015.73 1016.08 1016.46 1016.84 1017.22 1017.58 1017.91 1018.21 1018.47 1018.72 1018.94 1019.16 1019.38 1019.61 1019.86 1020.11 1020.38 1020.66 1020.93 1021.19 1021.42 1021.63 1021.80 1021.93 1022.03 1022.09 1022.12 1022.14 1022.14 1022.13 1022.11 1022.10
1015.58 1015.59 1015.54 1015.43 1015.29 1015.14 1015.01 1014.92 1014.87 1014.89 1014.98 1015.12 1015.32 1015.57 1015.84 1016.13 1016.41 1016.69 1016.96 1017.21 1017.45 1017.68 1017.91 1018.15 1018.40 1018.66 1018.94 1019.24 1019.54 1019.83 1020.12 1020.38 1020.61 1020.81 1020.97 1021.08 1021.17 1021.22 1021.25 1021.26 1021.27 1021.27 1021.28 1021.28
Thickness
5649 5655 5656 5656 5656 5657 5652 5649 5643 5648 5647 5647 5647 5643 5637 5632 5625 5618 5611 5604 5598 5591 5585 5581 5577 5574 5571 5569 5567 5565 5563 5560 5557 5555 5555 5554 5553 5552 5552 5553 5553 5553 5554 5555
5644 5651 5652 5649 5651 5653 5651 5650 5647 5647 5644 5646 5643 5638 5631 5625 5619 5613 5606 5599 5592 5585 5580 5574 5570 5567 5564 5561 5559 5556 5554 5551 5549 5547 5546 5545 5544 5543 5543 5543 5543 5544 5544 5546
5630 5640 5645 5634 5641 5645 5645 5646 5645 5640 5640 5639 5634 5629 5625 5619 5614 5608 5602 5594 5587 5581 5574 5568 5564 5561 5557 5554 5551 5548 5546 5543 5541 5539 5537 5536 5535 5535 5534 5534 5535 5535 5536 5537
5623 5631 5622 5632 5646 5646 5641 5640 5642 5639 5636 5633 5629 5624 5619 5615 5609 5603 5597 5590 5582 5575 5568 5562 5558 5554 5550 5547 5544 5541 5538 5536 5534 5532 5530 5529 5528 5527 5526 5526 5526 5526 5527 5529
5615 5617 5623 5635 5642 5640 5637 5634 5636 5633 5629 5625 5622 5618 5611 5607 5604 5599 5592 5585 5577 5570 5563 5557 5552 5548 5545 5541 5538 5535 5533 5530 5528 5526 5524 5522 5521 5520 5519 5519 5519 5519 5520 5521
5615 5617 5616 5629 5641 5644 5637 5627 5632 5630 5625 5621 5618 5609 5604 5602 5597 5591 5584 5577 5570 5563 5556 5551 5546 5543 5539 5535 5533 5530 5527 5525 5522 5520 5518 5517 5515 5514 5514 5514 5513 5514 5514 5514
5614 5614 5620 5634 5639 5641 5625 5624 5630 5627 5623 5618 5613 5607 5602 5597 5591 5585 5578 5571 5564 5558 5552 5546 5542 5538 5534 5531 5528 5525 5523 5520 5517 5516 5514 5513 5511 5510 5509 5509 5509 5508 5508 5509
5612 5612 5617 5633 5635 5628 5626 5627 5627 5623 5619 5613 5607 5602 5597 5592 5585 5579 5572 5565 5559 5553 5547 5541 5538 5534 5530 5526 5524 5521 5519 5516 5514 5512 5511 5510 5508 5507 5506 5505 5505 5504 5504 5504
5617 5617 5626 5629 5630 5630 5627 5625 5623 5619 5615 5610 5603 5597 5592 5586 5580 5574 5567 5561 5555 5549 5543 5538 5535 5531 5527 5524 5521 5519 5516 5513 5511 5509 5507 5506 5505 5504 5503 5502 5502 5501 5501 5501
5622 5626 5628 5629 5629 5628 5627 5624 5621 5617 5612 5608 5601 5594 5588 5582 5575 5569 5563 5557 5552 5546 5541 5536 5532 5529 5526 5522 5520 5517 5514 5511 5509 5507 5505 5503 5502 5502 5501 5500 5500 5500 5500 5500
5622 5626 5628 5629 5628 5626 5624 5622 5618 5614 5610 5605 5599 5591 5585 5579 5572 5567 5561 5555 5549 5545 5540 5535 5531 5528 5524 5521 5519 5515 5513 5510 5507 5505 5503 5501 5500 5499 5499 5498 5498 5499 5499 5500
5624 5628 5626 5626 5627 5626 5622 5618 5615 5611 5605 5600 5596 5590 5583 5576 5570 5565 5559 5553 5548 5543 5539 5534 5531 5527 5524 5521 5518 5515 5512 5509 5507 5505 5503 5501 5500 5499 5499 5500 5501 5501 5501 5502
5634 5634 5629 5629 5627 5625 5620 5616 5613 5609 5604 5597 5592 5587 5581 5574 5569 5563 5558 5553 5548 5544 5539 5535 5531 5527 5524 5522 5519 5516 5514 5511 5509 5506 5505 5503 5502 5502 5502 5502 5503 5504 5505 5506
5637 5634 5629 5627 5624 5622 5618 5614 5610 5605 5600 5595 5589 5584 5579 5573 5568 5563 5558 5554 5550 5545 5540 5536 5532 5529 5526 5524 5521 5518 5516 5513 5511 5509 5508 5507 5506 5505 5505 5506 5507 5507 5509 5510
5638 5636 5631 5627 5622 5618 5614 5610 5605 5600 5596 5591 5587 5582 5577 5572 5567 5564 5559 5555 5550 5545 5541 5538 5534 5531 5529 5526 5523 5521 5519 5517 5515 5514 5512 5511 5510 5510 5510 5510 5510 5511 5513 5515
5636 5633 5629 5625 5620 5615 5611 5607 5602 5598 5595 5591 5586 5582 5578 5573 5569 5564 5560 5556 5551 5547 5544 5540 5537 5535 5532 5529 5527 5524 5523 5522 5520 5518 5517 5517 5516 5516 5516 5516 5517 5517 5519 5521
5634 5629 5626 5622 5619 5615 5612 5608 5604 5600 5596 5592 5588 5583 5578 5573 5568 5564 5561 5557 5554 5551 5547 5544 5541 5539 5536 5533 5531 5529 5528 5526 5525 5524 5523 5523 5523 5523 5523 5523 5524 5525 5527 5528
5641 5637 5633 5629 5623 5618 5613 5610 5606 5602 5598 5595 5590 5585 5580 5575 5571 5568 5564 5560 5556 5553 5550 5548 5546 5543 5541 5538 5536 5534 5532 5531 5530 5530 5529 5529 5529 5529 5530 5530 5531 5533 5535 5536
5641 5638 5635 5630 5626 5621 5617 5612 5609 5605 5601 5597 5592 5587 5583 5579 5575 5571 5567 5562 5559 5556 5555 5554 5551 5548 5545 5543 5541 5539 5538 5537 5536 5535 5536 5536 5536 5537 5537 5538 5539 5541 5542 5543
5642 5639 5635 5631 5627 5622 5618 5615 5611 5607 5603 5599 5594 5589 5585 5582 5578 5574 5570 5567 5566 5564 5562 5559 5555 5553 5551 5549 5546 5544 5543 5543 5542 5542 5542 5542 5543 5544 5545 5545 5547 5548 5549 5551
5641 5637 5634 5630 5627 5624 5621 5618 5614 5609 5605 5602 5597 5594 5590 5586 5582 5578 5573 5571 5571 5569 5566 5563 5560 5558 5556 5554 5552 5550 5550 5549 5548 5548 5548 5549 5550 5551 5552 5552 5553 5555 5557 5558
5640 5637 5634 5631 5627 5624 5622 5619 5616 5612 5608 5604 5601 5598 5593 5589 5585 5582 5579 5579 5577 5574 5570 5568 5566 5564 5562 5560 5558 5557 5556 5556 5555 5554 5555 5555 5556 5557 5558 5559 5560 5562 5564 5565
5639 5637 5634 5632 5629 5625 5623 5620 5617 5614 5611 5608 5605 5602 5598 5595 5591 5587 5585 5584 5582 5579 5576 5574 5572 5570 5568 5565 5564 5563 5563 5562 5562 5562 5562 5562 5563 5564 5565 5566 5568 5569 5570 5572
5638 5636 5634 5631 5629 5625 5622 5620 5618 5616 5614 5611 5609 5606 5603 5598 5595 5594 5593 5591 5588 5584 5582 5580 5578 5576 5573 5571 5570 5569 5569 5569 5569 5569 5569 5569 5570 5570 5571 5573 5574 5576 5577 5578
5637 5635 5633 5630 5627 5625 5623 5621 5618 5616 5614 5612 5610 5609 5607 5604 5602 5601 5598 5595 5593 5589 5587 5586 5583 5581 5578 5577 5576 5576 5576 5576 5576 5576 5576 5576 5576 5577 5578 5579 5580 5581 5583 5584
5634 5633 5631 5630 5628 5626 5623 5621 5618 5616 5614 5612 5611 5610 5609 5607 5605 5603 5601 5599 5597 5594 5593 5591 5589 5587 5585 5584 5583 5583 5582 5582 5582 5582 5582 5582 5583 5583 5584 5585 5586 5587 5588 5589
5632 5630 5629 5627 5626 5625 5624 5622 5620 5618 5617 5615 5614 5613 5611 5610 5608 5606 5604 5602 5601 5599 5598 5596 5595 5593 5592 5590 5590 5589 5588 5588 5588 5588 5588 5588 5588 5589 5590 5590 5591 5592 5593 5594